Hourly Weather Roundup
Issued by NWS Central Illinois

Home | Current Version | Previous Version | Text Only | Print | Product List | Glossary On
Versions: 1 2 3 4 5 6 7 8 9 10 11 12 13 14 15 16 17 18 19 20 21 22 23 24 25 26 27 28 29 30 31 32 33 34 35 36 37 38 39 40 41 42 43 44 45 46 47 48 49 50
000
NZUS43 KILX 200510
HWRILX

Area Weather Roundup
National Weather Service Lincoln IL
1100 PM CST FRI JAN 19 2018

NOTE:  "FAIR" indicates few or no clouds below 12,000 feet, with
       no sigificant weather and/or obstructions to visibility.


CITY           SKY/WX    TMP DP  RH WIND       PRES   REMARKS
Bloomington    FAIR      35  27  72 S20       29.85R WCI  24
Champaign      FAIR      33  27  78 S20       29.90S WCI  21
Danville       FAIR      32  25  73 S21G28    29.87F WCI  20
Decatur        FAIR      35  30  82 SW18      29.91R WCI  24
Effingham      FAIR      35  27  73 S9        29.99R WCI  28
Flora          FAIR      35  24  63 S10       30.00R WCI  28
Galesburg      FAIR      38  30  73 SW8       29.84R WCI  32
Jacksonville   CLOUDY    40  24  54 S9        29.88R WCI  34
Lacon          FAIR      39  27  61 SW12G17   29.83R WCI  32
Lawrenceville  FAIR      29  20  69 S10       30.02S WCI  20
Litchfield     CLOUDY    32  29  87 S13       29.93S WCI  22
$$


CITY           SKY/WX    TMP DP  RH WIND       PRES   REMARKS
Lincoln        FAIR      36  29  76 S10       29.88S WCI  28
Macomb         PTCLDY    40  29  64 SW14      29.86R WCI  32
Mattoon        FAIR      33  26  75 S10G20    29.93S WCI  25
Mt Carmel AP   FAIR      35  20  55 SW14      30.01S WCI  26
Olney-Noble AP FAIR      33  19  54 S6        30.01R WCI  28
Paris AP       FAIR      33  26  76 S15       29.96R WCI  22
Peoria         FAIR      37  27  67 S9        29.86R WCI  30
Pontiac        FAIR      38  31  76 SW12      29.86R WCI  30
Rantoul        FAIR      35  30  82 S12       29.89R WCI  27
Robinson       FAIR      33  22  61 SW10G16   30.02R WCI  25
Springfield    FAIR      39  27  62 S18       29.89R WCI  30
Taylorville    FAIR      33  28  81 S13       29.92S WCI  24
$$

...REGIONAL REPORTS...


CITY           SKY/WX    TMP DP  RH WIND       PRES   REMARKS
Chicago O`Hare CLOUDY    39  28  64 SW17G25   29.76R WCI  30
Kankakee       FAIR     N/A N/A N/A SW12G18   29.87R
Moline         FAIR      42  28  57 SW10      29.79R
Mount Sterling PTCLDY    43  26  52 SW14      29.85R
Mount Vernon   FAIR      34  24  67 SW17      30.01R WCI  23
Pittsfield     CLOUDY    43  27  54 SW10      29.89R
Quincy         CLOUDY    41  27  57 SW15      29.86R WCI  33
Rockford       MOCLDY    41  28  60 SW12      29.78R WCI  34
$$


CITY           SKY/WX    TMP DP  RH WIND       PRES   REMARKS
Burlington     CLOUDY    40  28  62 SW13      29.82R WCI  32
Cedar Rapids   FAIR      38  29  70 SW12      29.75R WCI  30
Des Moines     CLOUDY    38  28  67 SW7       29.77R WCI  33
Kirksville     CLOUDY    42  30  62 SW13      29.85R
Ottumwa        CLOUDY    40  28  62 SW12      29.79R WCI  33
St Louis       CLOUDY    41  26  55 S5        29.94R
$$


CITY           SKY/WX    TMP DP  RH WIND       PRES   REMARKS
Terre Haute    FAIR      34  20  56 S12       29.98S WCI  25
Evansville     FAIR      36  22  56 S12       30.06S WCI  28
Indianapolis   MOCLDY    36  23  59 SW18      29.95F WCI  26
Lafayette      FAIR      34  23  64 SW12G18   29.90S WCI  25
Madison        MOCLDY    36  27  69 SW5       29.71R WCI  32
Milwaukee      FAIR      42  28  57 SW14G23   29.69R WCI  35
$$






USA.gov is the U.S. government's official web portal to all federal, state and local government web resources and services.